Notices

What's New in latest Release from April 7th, 2021:

- Updated Glossary, including Speed of Maximum Gust, and Total Hourly Precipitation

- Updated national and regional climate services offices contacts and prices information

- Addition of station inventory lists for 1981-2010, 1971-2000, and 1961-1990 Normals.

If you haven't already, please take our survey and provide feedback about our website: https://eccc.sondage-survey.ca/f/LanguageSelection.aspx?s=442ca660-fcf1-47c0-95a9-59707d6fd709

Hourly Data Report for December 09, 2020

MUSKOKA
ONTARIO
Current Station Operator: NAVCAN

44°58'29.000" N
79°18'12.000" W
281.90 m
6115529
71532
YQA

Download Data

Hourly Data (December 2020)
Hourly Data Report for December 9, 2020
TIME
LST
Temp Definition
°C
Dew Point Definition
°C
Rel Hum Definition
%
Precip. Amount Definition
mm

Wind Dir Definition
10's deg

Wind Spd Definition
km/h
Visibility Definition
km
Stn Press Definition
kPa
Hmdx Definition


Wind Chill Definition


Weather Definition


00:00 -0.4 -2.8 84 0.0 18 18 16.1 97.04   -5 LegendNANA
01:00 -0.4 -1.8 90 0.0 21 22 4.0 96.98   -6 Snow
02:00 -0.6 -1.5 94 0.0 20 17 2.0 96.96   -6 Snow
03:00 -0.4 -1.1 95 0.0 20 15 2.0 96.91   -5 Snow
04:00 -0.3 -1.0 95 LegendMM 20 15 2.8 96.83   -5 Snow
05:00 -0.2 -0.8 96 LegendMM 21 11 2.0 96.77   -4 Snow
06:00 -0.1 -0.5 97 LegendMM 20 11 2.0 96.77   -4 Snow
07:00 0.1 -0.2 98 LegendMM 21 9 2.0 96.76     Rain,Fog
08:00 0.3 0.0 98 LegendMM 20 8 1.6 96.75     Rain,Fog
09:00 0.9 0.6 98 LegendMM 24 11 3.6 96.74     Rain,Fog
10:00 1.7 1.3 97 LegendMM 31 9 4.8 96.78     Fog
11:00 2.3 1.4 94 LegendMM 29 11 9.7 96.78     Fog
12:00 2.4 1.4 93 LegendMM 29 11 16.1 96.76     LegendNANA
13:00 2.5 1.5 93 LegendMM 30 13 16.1 96.75     LegendNANA
14:00 2.1 1.1 93 LegendMM 32 13 16.1 96.80     LegendNANA
15:00 2.0 0.2 88 LegendMM 31 17 16.1 96.90     LegendNANA
16:00 1.7 -0.1 88 LegendMM 31 13 16.1 97.00     LegendNANA
17:00 1.8 -0.1 87 LegendMM 32 17 16.1 97.11     LegendNANA
18:00 1.7 -0.1 88 LegendMM 31 15 16.1 97.20     LegendNANA
19:00 1.7 -0.4 86 LegendMM 31 17 16.1 97.30     LegendNANA
20:00 1.7 -0.2 87 LegendMM 31 17 16.1 97.38     LegendNANA
21:00 1.9 -0.2 86 LegendMM 31 13 16.1 97.46     LegendNANA
22:00 2.0 -0.9 81 LegendMM 30 18 16.1 97.52     LegendNANA
23:00 1.9 -2.0 75 LegendMM 32 18 16.1 97.61     LegendNANA

Notes on Data Quality.

Legend

  • E = Estimated
  • M = Missing
  • NA = Not Available*
  • [empty] = Indicates an unobserved value
Date modified: